Simultaneous Nadir Overpasses (SNOs) Predictions

Prediction of SNOs between NOAA-19 and TERRA Satellite Orbit:

Table of predicted SNOs for the next 14.0 days since TLE Epoch: 6/4/2022
Index Date (NOAA-19) Time (NOAA-19) Lat,Lon (NOAA-19) SZA (NOAA-19 ) Date (TERRA) Time (TERRA) Lat,Lon (TERRA) SZA (TERRA ) Distance(km) Time Diff (sec)
1 06/05/2022 08:39:06 -80.78, -94.07 119.93 06/05/2022 08:39:55 -80.77, -94.15 119.93 2.06 49
2 06/05/2022 09:30:09 80.77, 73.53 60.10 06/05/2022 09:29:21 80.77, 73.54 60.08 0.17 48
3 06/07/2022 15:03:02 -80.78, 170.01 120.16 06/07/2022 15:03:03 -80.76, 170.00 120.18 2.08 1
4 06/09/2022 20:36:03 80.79, -93.31 59.64 06/09/2022 20:36:43 80.79, -93.15 59.67 2.83 40
5 06/09/2022 21:26:57 -80.77, 74.43 120.33 06/09/2022 21:26:10 -80.79, 74.48 120.34 1.81 47
6 06/12/2022 02:59:59 80.79, 170.80 59.47 06/12/2022 02:59:51 80.78, 170.97 59.49 3.13 8
7 06/14/2022 08:32:50 -80.79, -92.39 120.66 06/14/2022 08:33:33 -80.78, -92.51 120.66 2.46 43
8 06/14/2022 09:23:54 80.78, 75.22 59.37 06/14/2022 09:22:59 80.78, 75.10 59.33 2.23 55



Historial Predications of SNOs between NOAA-19 and TERRA
